Year,Month,Day,Hour,Minute,Value (Times are PST for temperature in C)
2014,05,23,00,00,15.40
2014,05,23,00,01,15.40
2014,05,23,00,02,15.40
2014,05,23,00,03,15.40
2014,05,23,00,04,15.40
2014,05,23,00,05,15.40
2014,05,23,00,06,15.40
2014,05,23,00,07,15.40
2014,05,23,00,08,15.40
2014,05,23,00,09,15.30
2014,05,23,00,10,15.30
2014,05,23,00,11,15.30
2014,05,23,00,12,15.30
2014,05,23,00,13,15.30
2014,05,23,00,14,15.30
2014,05,23,00,15,15.30
2014,05,23,00,16,15.30
2014,05,23,00,17,15.30
2014,05,23,00,18,15.30
2014,05,23,00,19,15.30
2014,05,23,00,20,15.30
2014,05,23,00,21,15.30
2014,05,23,00,22,15.30
2014,05,23,00,23,15.30
2014,05,23,00,24,15.30
2014,05,23,00,25,15.30
2014,05,23,00,26,15.30
2014,05,23,00,27,15.30
2014,05,23,00,28,15.30
2014,05,23,00,29,15.30
2014,05,23,00,30,15.30
2014,05,23,00,31,15.30
2014,05,23,00,32,15.30
2014,05,23,00,33,15.30
2014,05,23,00,34,15.20
2014,05,23,00,35,15.20
2014,05,23,00,36,15.20
2014,05,23,00,37,15.20
2014,05,23,00,38,15.20
2014,05,23,00,39,15.20
2014,05,23,00,40,15.20
2014,05,23,00,41,15.20
2014,05,23,00,42,15.20
2014,05,23,00,43,15.20
2014,05,23,00,44,15.20
2014,05,23,00,45,15.20
2014,05,23,00,46,15.20
2014,05,23,00,47,15.20
2014,05,23,00,48,15.20
2014,05,23,00,49,15.20
2014,05,23,00,50,15.20
2014,05,23,00,51,15.20
2014,05,23,00,52,15.20
2014,05,23,00,53,15.20
2014,05,23,00,54,15.20
2014,05,23,00,55,15.20
2014,05,23,00,56,15.20
2014,05,23,00,57,15.20
2014,05,23,00,58,15.20
2014,05,23,00,59,15.10
2014,05,23,01,00,15.10
2014,05,23,01,01,15.10
2014,05,23,01,02,15.10
2014,05,23,01,03,15.10
2014,05,23,01,04,15.10
2014,05,23,01,05,15.10
2014,05,23,01,06,15.00
2014,05,23,01,07,15.00
2014,05,23,01,08,15.00
2014,05,23,01,09,15.00
2014,05,23,01,10,15.00
2014,05,23,01,11,15.00
2014,05,23,01,12,15.00
2014,05,23,01,13,14.90
2014,05,23,01,14,14.90
2014,05,23,01,15,14.90
2014,05,23,01,16,14.90
2014,05,23,01,17,14.90
2014,05,23,01,18,14.90
2014,05,23,01,19,14.90
2014,05,23,01,20,14.90
2014,05,23,01,21,14.90
2014,05,23,01,22,14.90
2014,05,23,01,23,14.90
2014,05,23,01,24,14.80
2014,05,23,01,25,14.80
2014,05,23,01,26,14.80
2014,05,23,01,27,14.80
2014,05,23,01,28,14.80
2014,05,23,01,29,14.80
2014,05,23,01,30,14.80
2014,05,23,01,31,14.80
2014,05,23,01,32,14.80
2014,05,23,01,33,14.80
2014,05,23,01,34,14.80
2014,05,23,01,35,14.80
2014,05,23,01,36,14.80
2014,05,23,01,37,14.80
2014,05,23,01,38,14.80
2014,05,23,01,39,14.80
2014,05,23,01,40,14.80
2014,05,23,01,41,14.80
2014,05,23,01,42,14.80
2014,05,23,01,43,14.80
2014,05,23,01,44,14.80
2014,05,23,01,45,14.80
2014,05,23,01,46,14.80
2014,05,23,01,47,14.80
2014,05,23,01,48,14.80
2014,05,23,01,49,14.80
2014,05,23,01,50,14.80
2014,05,23,01,51,14.80
2014,05,23,01,52,14.80
2014,05,23,01,53,14.80
2014,05,23,01,54,14.80
2014,05,23,01,55,14.80
2014,05,23,01,56,14.80
2014,05,23,01,57,14.80
2014,05,23,01,58,14.80
2014,05,23,01,59,14.80
2014,05,23,02,00,14.80
2014,05,23,02,01,14.80
2014,05,23,02,02,14.80
2014,05,23,02,03,14.80
2014,05,23,02,04,14.80
2014,05,23,02,05,14.80
2014,05,23,02,06,14.80
2014,05,23,02,07,14.80
2014,05,23,02,08,14.80
2014,05,23,02,09,14.80
2014,05,23,02,10,14.80
2014,05,23,02,11,14.80
2014,05,23,02,12,14.80
2014,05,23,02,13,14.80
2014,05,23,02,14,14.80
2014,05,23,02,15,14.80
2014,05,23,02,16,14.70
2014,05,23,02,17,14.70
2014,05,23,02,18,14.70
2014,05,23,02,19,14.70
2014,05,23,02,20,14.70
2014,05,23,02,21,14.70
2014,05,23,02,22,14.70
2014,05,23,02,23,14.70
2014,05,23,02,24,14.70
2014,05,23,02,25,14.70
2014,05,23,02,26,14.70
2014,05,23,02,27,14.70
2014,05,23,02,28,14.70
2014,05,23,02,29,14.70
2014,05,23,02,30,14.60
2014,05,23,02,31,14.60
2014,05,23,02,32,14.60
2014,05,23,02,33,14.60
2014,05,23,02,34,14.60
2014,05,23,02,35,14.60
2014,05,23,02,36,14.60
2014,05,23,02,37,14.60
2014,05,23,02,38,14.60
2014,05,23,02,39,14.60
2014,05,23,02,40,14.60
2014,05,23,02,41,14.60
2014,05,23,02,42,14.60
2014,05,23,02,43,14.60
2014,05,23,02,44,14.60
2014,05,23,02,45,14.60
2014,05,23,02,46,14.60
2014,05,23,02,47,14.60
2014,05,23,02,48,14.60
2014,05,23,02,49,14.60
2014,05,23,02,50,14.50
2014,05,23,02,51,14.60
2014,05,23,02,52,14.50
2014,05,23,02,53,14.50
2014,05,23,02,54,14.50
2014,05,23,02,55,14.50
2014,05,23,02,56,14.50
2014,05,23,02,57,14.50
2014,05,23,02,58,14.50
2014,05,23,02,59,14.50
2014,05,23,03,00,14.50
2014,05,23,03,01,14.50
2014,05,23,03,02,14.50
2014,05,23,03,03,14.50
2014,05,23,03,04,14.50
2014,05,23,03,05,14.60
2014,05,23,03,06,14.50
2014,05,23,03,07,14.60
2014,05,23,03,08,14.60
2014,05,23,03,09,14.50
2014,05,23,03,10,14.50
2014,05,23,03,11,14.50
2014,05,23,03,12,14.50
2014,05,23,03,13,14.50
2014,05,23,03,14,14.50
2014,05,23,03,15,14.50
2014,05,23,03,16,14.50
2014,05,23,03,17,14.50
2014,05,23,03,18,14.50
2014,05,23,03,19,14.40
2014,05,23,03,20,14.40
2014,05,23,03,21,14.40
2014,05,23,03,22,14.40
2014,05,23,03,23,14.40
2014,05,23,03,24,14.40
2014,05,23,03,25,14.30
2014,05,23,03,26,14.40
2014,05,23,03,27,14.40
2014,05,23,03,28,14.40
2014,05,23,03,29,14.40
2014,05,23,03,30,14.40
2014,05,23,03,31,14.40
2014,05,23,03,32,14.40
2014,05,23,03,33,14.40
2014,05,23,03,34,14.40
2014,05,23,03,35,14.30
2014,05,23,03,36,14.30
2014,05,23,03,37,14.30
2014,05,23,03,38,14.30
2014,05,23,03,39,14.40
2014,05,23,03,40,14.40
2014,05,23,03,41,14.40
2014,05,23,03,42,14.40
2014,05,23,03,43,14.40
2014,05,23,03,44,14.40
2014,05,23,03,45,14.40
2014,05,23,03,46,14.40
2014,05,23,03,47,14.40
2014,05,23,03,48,14.40
2014,05,23,03,49,14.40
2014,05,23,03,50,14.40
2014,05,23,03,51,14.40
2014,05,23,03,52,14.40
2014,05,23,03,53,14.40
2014,05,23,03,54,14.40
2014,05,23,03,55,14.40
2014,05,23,03,56,14.40
2014,05,23,03,57,14.40
2014,05,23,03,58,14.30
2014,05,23,03,59,14.30
2014,05,23,04,00,14.30
2014,05,23,04,01,14.30
2014,05,23,04,02,14.30
2014,05,23,04,03,14.30
2014,05,23,04,04,14.30
2014,05,23,04,05,14.30
2014,05,23,04,06,14.30
2014,05,23,04,07,14.40
2014,05,23,04,08,14.30
2014,05,23,04,09,14.30
2014,05,23,04,10,14.30
2014,05,23,04,11,14.30
2014,05,23,04,12,14.30
2014,05,23,04,13,14.30
2014,05,23,04,14,14.30
2014,05,23,04,15,14.30
2014,05,23,04,16,14.30
2014,05,23,04,17,14.30
2014,05,23,04,18,14.30
2014,05,23,04,19,14.30
2014,05,23,04,20,14.30
2014,05,23,04,21,14.30
2014,05,23,04,22,14.40
2014,05,23,04,23,14.40
2014,05,23,04,24,14.40
2014,05,23,04,25,14.40
2014,05,23,04,26,14.40
2014,05,23,04,27,14.50
2014,05,23,04,28,14.50
2014,05,23,04,29,14.50
2014,05,23,04,30,14.50
2014,05,23,04,31,14.60
2014,05,23,04,32,14.60
2014,05,23,04,33,14.70
2014,05,23,04,34,14.80
2014,05,23,04,35,14.80
2014,05,23,04,36,14.90
2014,05,23,04,37,14.90
2014,05,23,04,38,14.90
2014,05,23,04,39,14.90
2014,05,23,04,40,15.00
2014,05,23,04,41,15.00
2014,05,23,04,42,15.00
2014,05,23,04,43,15.00
2014,05,23,04,44,15.10
2014,05,23,04,45,15.10
2014,05,23,04,46,15.10
2014,05,23,04,47,15.10
2014,05,23,04,48,15.10
2014,05,23,04,49,15.10
2014,05,23,04,50,15.10
2014,05,23,04,51,15.10
2014,05,23,04,52,15.10
2014,05,23,04,53,15.10
2014,05,23,04,54,15.10
2014,05,23,04,55,15.20
2014,05,23,04,56,15.20
2014,05,23,04,57,15.20
2014,05,23,04,58,15.20
2014,05,23,04,59,15.20
2014,05,23,05,00,15.30
2014,05,23,05,01,15.30
2014,05,23,05,02,15.30
2014,05,23,05,03,15.30
2014,05,23,05,04,15.30
2014,05,23,05,05,15.30
2014,05,23,05,06,15.40
2014,05,23,05,07,15.40
2014,05,23,05,08,15.40
2014,05,23,05,09,15.50
2014,05,23,05,10,15.60
2014,05,23,05,11,15.60
2014,05,23,05,12,15.70
2014,05,23,05,13,15.70
2014,05,23,05,14,15.70
2014,05,23,05,15,15.80
2014,05,23,05,16,15.80
2014,05,23,05,17,15.80
2014,05,23,05,18,15.70
2014,05,23,05,19,15.80
2014,05,23,05,20,15.70
2014,05,23,05,21,15.70
2014,05,23,05,22,15.70
2014,05,23,05,23,15.70
2014,05,23,05,24,15.60
2014,05,23,05,25,15.60
2014,05,23,05,26,15.50
2014,05,23,05,27,15.40
2014,05,23,05,28,15.30
2014,05,23,05,29,15.30
2014,05,23,05,30,15.20
2014,05,23,05,31,15.10
2014,05,23,05,32,15.00
2014,05,23,05,33,15.00
2014,05,23,05,34,14.90
2014,05,23,05,35,14.90
2014,05,23,05,36,14.80
2014,05,23,05,37,14.80
2014,05,23,05,38,14.80
2014,05,23,05,39,14.70
2014,05,23,05,40,14.70
2014,05,23,05,41,14.70
2014,05,23,05,42,14.60
2014,05,23,05,43,14.60
2014,05,23,05,44,14.60
2014,05,23,05,45,14.50
2014,05,23,05,46,14.50
2014,05,23,05,47,14.40
2014,05,23,05,48,14.40
2014,05,23,05,49,14.30
2014,05,23,05,50,14.30
2014,05,23,05,51,14.30
2014,05,23,05,52,14.20
2014,05,23,05,53,14.20
2014,05,23,05,54,14.20
2014,05,23,05,55,14.20
2014,05,23,05,56,14.20
2014,05,23,05,57,14.10
2014,05,23,05,58,14.10
2014,05,23,05,59,14.10
2014,05,23,06,00,14.10
2014,05,23,06,01,14.10
2014,05,23,06,02,14.10
2014,05,23,06,03,14.10
2014,05,23,06,04,14.10
2014,05,23,06,05,14.00
2014,05,23,06,06,14.00
2014,05,23,06,07,14.00
2014,05,23,06,08,14.00
2014,05,23,06,09,13.90
2014,05,23,06,10,13.90
2014,05,23,06,11,13.90
2014,05,23,06,12,13.80
2014,05,23,06,13,13.80
2014,05,23,06,14,13.80
2014,05,23,06,15,13.70
2014,05,23,06,16,13.70
2014,05,23,06,17,13.60
2014,05,23,06,18,13.60
2014,05,23,06,19,13.60
2014,05,23,06,20,13.60
2014,05,23,06,21,13.60
2014,05,23,06,22,13.50
2014,05,23,06,23,13.50
2014,05,23,06,24,13.40
2014,05,23,06,25,13.40
2014,05,23,06,26,13.40
2014,05,23,06,27,13.30
2014,05,23,06,28,13.30
2014,05,23,06,29,13.30
2014,05,23,06,30,13.30
2014,05,23,06,31,13.30
2014,05,23,06,32,13.30
2014,05,23,06,33,13.30
2014,05,23,06,34,13.30
2014,05,23,06,35,13.30
2014,05,23,06,36,13.20
2014,05,23,06,37,13.20
2014,05,23,06,38,13.20
2014,05,23,06,39,13.20
2014,05,23,06,40,13.10
2014,05,23,06,41,13.10
2014,05,23,06,42,13.10
2014,05,23,06,43,13.00
2014,05,23,06,44,12.90
2014,05,23,06,45,12.90
2014,05,23,06,46,12.90
2014,05,23,06,47,12.90
2014,05,23,06,48,12.80
2014,05,23,06,49,12.80
2014,05,23,06,50,12.80
2014,05,23,06,51,12.80
2014,05,23,06,52,12.70
2014,05,23,06,53,12.70
2014,05,23,06,54,12.70
2014,05,23,06,55,12.60
2014,05,23,06,56,12.60
2014,05,23,06,57,12.60
2014,05,23,06,58,12.60
2014,05,23,06,59,12.50
2014,05,23,07,00,12.50
2014,05,23,07,01,12.50
2014,05,23,07,02,12.50
2014,05,23,07,03,12.50
2014,05,23,07,04,12.50
2014,05,23,07,05,12.60
2014,05,23,07,06,12.60
2014,05,23,07,07,12.60
2014,05,23,07,08,12.60
2014,05,23,07,09,12.60
2014,05,23,07,10,12.60
2014,05,23,07,11,12.60
2014,05,23,07,12,12.60
2014,05,23,07,13,12.60
2014,05,23,07,14,12.60
2014,05,23,07,15,12.70
2014,05,23,07,16,12.70
2014,05,23,07,17,12.70
2014,05,23,07,18,12.70
2014,05,23,07,19,12.70
2014,05,23,07,20,12.80
2014,05,23,07,21,12.80
2014,05,23,07,22,12.80
2014,05,23,07,23,12.80
2014,05,23,07,24,12.90
2014,05,23,07,25,12.90
2014,05,23,07,26,13.00
2014,05,23,07,27,13.00
2014,05,23,07,28,13.00
2014,05,23,07,29,13.00
2014,05,23,07,30,13.00
2014,05,23,07,31,13.00
2014,05,23,07,32,13.00
2014,05,23,07,33,12.90
2014,05,23,07,34,12.90
2014,05,23,07,35,12.90
2014,05,23,07,36,12.90
2014,05,23,07,37,12.80
2014,05,23,07,38,12.80
2014,05,23,07,39,12.80
2014,05,23,07,40,12.70
2014,05,23,07,41,12.70
2014,05,23,07,42,12.60
2014,05,23,07,43,12.60
2014,05,23,07,44,12.60
2014,05,23,07,45,12.60
2014,05,23,07,46,12.60
2014,05,23,07,47,12.60
2014,05,23,07,48,12.60
2014,05,23,07,49,12.60
2014,05,23,07,50,12.50
2014,05,23,07,51,12.50
2014,05,23,07,52,12.50
2014,05,23,07,53,12.50
2014,05,23,07,54,12.50
2014,05,23,07,55,12.60
2014,05,23,07,56,12.60
2014,05,23,07,57,12.60
2014,05,23,07,58,12.60
2014,05,23,07,59,12.60
2014,05,23,08,00,12.60
2014,05,23,08,01,12.60
2014,05,23,08,02,12.60
2014,05,23,08,03,12.60
2014,05,23,08,04,12.60
2014,05,23,08,05,12.60
2014,05,23,08,06,12.50
2014,05,23,08,07,12.50
2014,05,23,08,08,12.50
2014,05,23,08,09,12.50
2014,05,23,08,10,12.50
2014,05,23,08,11,12.50
2014,05,23,08,12,12.50
2014,05,23,08,13,12.50
2014,05,23,08,14,12.50
2014,05,23,08,15,12.50
2014,05,23,08,16,12.50
2014,05,23,08,17,12.50
2014,05,23,08,18,12.60
2014,05,23,08,19,12.60
2014,05,23,08,20,12.60
2014,05,23,08,21,12.60
2014,05,23,08,22,12.60
2014,05,23,08,23,12.60
2014,05,23,08,24,12.60
2014,05,23,08,25,12.60
2014,05,23,08,26,12.60
2014,05,23,08,27,12.60
2014,05,23,08,28,12.60
2014,05,23,08,29,12.60
2014,05,23,08,30,12.60
2014,05,23,08,31,12.60
2014,05,23,08,32,12.60
2014,05,23,08,33,12.50
2014,05,23,08,34,12.50
2014,05,23,08,35,12.50
2014,05,23,08,36,12.40
2014,05,23,08,37,12.40
2014,05,23,08,38,12.40
2014,05,23,08,39,12.40
2014,05,23,08,40,12.40
2014,05,23,08,41,12.40
2014,05,23,08,42,12.40
2014,05,23,08,43,12.40
2014,05,23,08,44,12.40
2014,05,23,08,45,12.40
2014,05,23,08,46,12.40
2014,05,23,08,47,12.40
2014,05,23,08,48,12.40
2014,05,23,08,49,12.40
2014,05,23,08,50,12.40
2014,05,23,08,51,12.40
2014,05,23,08,52,12.40
2014,05,23,08,53,12.50
2014,05,23,08,54,12.50
2014,05,23,08,55,12.50
2014,05,23,08,56,12.50
2014,05,23,08,57,12.60
2014,05,23,08,58,12.60
2014,05,23,08,59,12.60
2014,05,23,09,00,12.60
2014,05,23,09,01,12.60
2014,05,23,09,02,12.60
2014,05,23,09,03,12.70
2014,05,23,09,04,12.70
2014,05,23,09,05,12.70
2014,05,23,09,06,12.70
2014,05,23,09,07,12.70
2014,05,23,09,08,12.70
2014,05,23,09,09,12.80
2014,05,23,09,10,12.80
2014,05,23,09,11,12.80
2014,05,23,09,12,12.80
2014,05,23,09,13,12.80
2014,05,23,09,14,12.80
2014,05,23,09,15,12.80
2014,05,23,09,16,12.80
2014,05,23,09,17,12.90
2014,05,23,09,18,12.90
2014,05,23,09,19,12.90
2014,05,23,09,20,12.90
2014,05,23,09,21,12.90
2014,05,23,09,22,12.90
2014,05,23,09,23,12.90
2014,05,23,09,24,12.90
2014,05,23,09,25,12.90
2014,05,23,09,26,12.90
2014,05,23,09,27,12.90
2014,05,23,09,28,12.90
2014,05,23,09,29,12.90
2014,05,23,09,30,12.90
2014,05,23,09,31,12.90
2014,05,23,09,32,12.90
2014,05,23,09,33,13.00
2014,05,23,09,34,13.00
2014,05,23,09,35,13.00
2014,05,23,09,36,13.00
2014,05,23,09,37,13.10
2014,05,23,09,38,13.10
2014,05,23,09,39,13.10
2014,05,23,09,40,13.10
2014,05,23,09,41,13.20
2014,05,23,09,42,13.20
2014,05,23,09,43,13.20
2014,05,23,09,44,13.20
2014,05,23,09,45,13.20
2014,05,23,09,46,13.20
2014,05,23,09,47,13.20
2014,05,23,09,48,13.20
2014,05,23,09,49,13.20
2014,05,23,09,50,13.20
2014,05,23,09,51,13.20
2014,05,23,09,52,13.20
2014,05,23,09,53,13.20
2014,05,23,09,54,13.30
2014,05,23,09,55,13.30
2014,05,23,09,56,13.30
2014,05,23,09,57,13.30
2014,05,23,09,58,13.30
2014,05,23,09,59,13.30
2014,05,23,10,00,13.30
2014,05,23,10,01,13.30
2014,05,23,10,02,13.30
2014,05,23,10,03,13.30
2014,05,23,10,04,13.30
2014,05,23,10,05,13.40
2014,05,23,10,06,13.40
2014,05,23,10,07,13.40
2014,05,23,10,08,13.40
2014,05,23,10,09,13.40
2014,05,23,10,10,13.40
2014,05,23,10,11,13.40
2014,05,23,10,12,13.40
2014,05,23,10,13,13.40
2014,05,23,10,14,13.40
2014,05,23,10,15,13.40
2014,05,23,10,16,13.40
2014,05,23,10,17,13.50
2014,05,23,10,18,13.50
2014,05,23,10,19,13.60
2014,05,23,10,20,13.60
2014,05,23,10,21,13.60
2014,05,23,10,22,13.60
2014,05,23,10,23,13.70
2014,05,23,10,24,13.70
2014,05,23,10,25,13.70
2014,05,23,10,26,13.80
2014,05,23,10,27,13.80
2014,05,23,10,28,13.80
2014,05,23,10,29,13.80
2014,05,23,10,30,13.90
2014,05,23,10,31,13.90
2014,05,23,10,32,13.90
2014,05,23,10,33,14.00
2014,05,23,10,34,13.90
2014,05,23,10,35,13.90
2014,05,23,10,36,13.90
2014,05,23,10,37,13.90
2014,05,23,10,38,14.00
2014,05,23,10,39,14.00
2014,05,23,10,40,13.90
2014,05,23,10,41,13.80
2014,05,23,10,42,13.80
2014,05,23,10,43,13.70
2014,05,23,10,44,13.70
2014,05,23,10,45,13.70
2014,05,23,10,46,13.60
2014,05,23,10,47,13.60
2014,05,23,10,48,13.60
2014,05,23,10,49,13.60
2014,05,23,10,50,13.60
2014,05,23,10,51,13.60
2014,05,23,10,52,13.60
2014,05,23,10,53,13.60
2014,05,23,10,54,13.50
2014,05,23,10,55,13.50
2014,05,23,10,56,13.40
2014,05,23,10,57,13.40
2014,05,23,10,58,13.40
2014,05,23,10,59,13.50
2014,05,23,11,00,13.50
2014,05,23,11,01,13.50
2014,05,23,11,02,13.50
2014,05,23,11,03,13.50
2014,05,23,11,04,13.50
2014,05,23,11,05,13.50
2014,05,23,11,06,13.40
2014,05,23,11,07,13.40
2014,05,23,11,08,13.40
2014,05,23,11,09,13.40
2014,05,23,11,10,13.40
2014,05,23,11,11,13.30
2014,05,23,11,12,13.40
2014,05,23,11,13,13.30
2014,05,23,11,14,13.30
2014,05,23,11,15,13.40
2014,05,23,11,16,13.50
2014,05,23,11,17,13.60
2014,05,23,11,18,13.60
2014,05,23,11,19,13.60
2014,05,23,11,20,13.60
2014,05,23,11,21,13.60
2014,05,23,11,22,13.60
2014,05,23,11,23,13.50
2014,05,23,11,24,13.50
2014,05,23,11,25,13.50
2014,05,23,11,26,13.50
2014,05,23,11,27,13.60
2014,05,23,11,28,13.60
2014,05,23,11,29,13.50
2014,05,23,11,30,13.50
2014,05,23,11,31,13.40
2014,05,23,11,32,13.50
2014,05,23,11,33,13.60
2014,05,23,11,34,13.70
2014,05,23,11,35,13.70
2014,05,23,11,36,13.80
2014,05,23,11,37,13.90
2014,05,23,11,38,13.80
2014,05,23,11,39,13.90
2014,05,23,11,40,13.90
2014,05,23,11,41,14.00
2014,05,23,11,42,14.00
2014,05,23,11,43,14.10
2014,05,23,11,44,14.20
2014,05,23,11,45,14.20
2014,05,23,11,46,14.20
2014,05,23,11,47,14.20
2014,05,23,11,48,14.30
2014,05,23,11,49,14.30
2014,05,23,11,50,14.40
2014,05,23,11,51,14.50
2014,05,23,11,52,14.60
2014,05,23,11,53,14.60
2014,05,23,11,54,14.70
2014,05,23,11,55,14.70
2014,05,23,11,56,14.70
2014,05,23,11,57,14.70
2014,05,23,11,58,14.70
2014,05,23,11,59,14.70
2014,05,23,12,00,14.70
2014,05,23,12,01,14.70
2014,05,23,12,02,14.70
2014,05,23,12,03,14.70
2014,05,23,12,04,14.70
2014,05,23,12,05,14.80
2014,05,23,12,06,14.80
2014,05,23,12,07,14.90
2014,05,23,12,08,14.90
2014,05,23,12,09,15.00
2014,05,23,12,10,15.00
2014,05,23,12,11,15.10
2014,05,23,12,12,15.20
2014,05,23,12,13,15.20
2014,05,23,12,14,15.40
2014,05,23,12,15,15.50
2014,05,23,12,16,15.50
2014,05,23,12,17,15.60
2014,05,23,12,18,15.60
2014,05,23,12,19,15.70
2014,05,23,12,20,15.80
2014,05,23,12,21,15.80
2014,05,23,12,22,15.80
2014,05,23,12,23,15.80
2014,05,23,12,24,15.80
2014,05,23,12,25,15.90
2014,05,23,12,26,15.90
2014,05,23,12,27,15.80
2014,05,23,12,28,15.80
2014,05,23,12,29,15.80
2014,05,23,12,30,15.70
2014,05,23,12,31,15.70
2014,05,23,12,32,15.60
2014,05,23,12,33,15.60
2014,05,23,12,34,15.50
2014,05,23,12,35,15.40
2014,05,23,12,36,15.40
2014,05,23,12,37,15.50
2014,05,23,12,38,15.50
2014,05,23,12,39,15.50
2014,05,23,12,40,15.50
2014,05,23,12,41,15.50
2014,05,23,12,42,15.50
2014,05,23,12,43,15.60
2014,05,23,12,44,15.60
2014,05,23,12,45,15.60
2014,05,23,12,46,15.60
2014,05,23,12,47,15.60
2014,05,23,12,48,15.70
2014,05,23,12,49,15.70
2014,05,23,12,50,15.70
2014,05,23,12,51,15.60
2014,05,23,12,52,15.70
2014,05,23,12,53,15.60
2014,05,23,12,54,15.60
2014,05,23,12,55,15.60
2014,05,23,12,56,15.60
2014,05,23,12,57,15.70
2014,05,23,12,58,15.70
2014,05,23,12,59,15.70
2014,05,23,13,00,15.60
2014,05,23,13,01,15.70
2014,05,23,13,02,15.70
2014,05,23,13,03,15.70
2014,05,23,13,04,15.80
2014,05,23,13,05,15.90
2014,05,23,13,06,16.00
2014,05,23,13,07,16.10
2014,05,23,13,08,16.20
2014,05,23,13,09,16.20
2014,05,23,13,10,16.20
2014,05,23,13,11,16.20
2014,05,23,13,12,16.20
2014,05,23,13,13,16.20
2014,05,23,13,14,16.20
2014,05,23,13,15,16.20
2014,05,23,13,16,16.30
2014,05,23,13,17,16.40
2014,05,23,13,18,16.40
2014,05,23,13,19,16.40
2014,05,23,13,20,16.50
2014,05,23,13,21,16.50
2014,05,23,13,22,16.60
2014,05,23,13,23,16.60
2014,05,23,13,24,16.60
2014,05,23,13,25,16.60
2014,05,23,13,26,16.70
2014,05,23,13,27,16.80
2014,05,23,13,28,16.80
2014,05,23,13,29,16.90
2014,05,23,13,30,17.00
2014,05,23,13,31,17.10
2014,05,23,13,32,17.20
2014,05,23,13,33,17.20
2014,05,23,13,34,17.20
2014,05,23,13,35,17.10
2014,05,23,13,36,17.10
2014,05,23,13,37,17.20
2014,05,23,13,38,17.20
2014,05,23,13,39,17.20
2014,05,23,13,40,17.20
2014,05,23,13,41,17.30
2014,05,23,13,42,17.40
2014,05,23,13,43,17.40
2014,05,23,13,44,17.40
2014,05,23,13,45,17.50
2014,05,23,13,46,17.40
2014,05,23,13,47,17.40
2014,05,23,13,48,17.40
2014,05,23,13,49,17.30
2014,05,23,13,50,17.30
2014,05,23,13,51,17.30
2014,05,23,13,52,17.40
2014,05,23,13,53,17.50
2014,05,23,13,54,17.50
2014,05,23,13,55,17.50
2014,05,23,13,56,17.50
2014,05,23,13,57,17.40
2014,05,23,13,58,17.40
2014,05,23,13,59,17.50
2014,05,23,14,00,17.50
2014,05,23,14,01,17.50
2014,05,23,14,02,17.60
2014,05,23,14,03,17.60
2014,05,23,14,04,17.60
2014,05,23,14,05,17.60
2014,05,23,14,06,17.60
2014,05,23,14,07,17.60
2014,05,23,14,08,17.50
2014,05,23,14,09,17.50
2014,05,23,14,10,17.60
2014,05,23,14,11,17.70
2014,05,23,14,12,17.70
2014,05,23,14,13,17.70
2014,05,23,14,14,17.70
2014,05,23,14,15,17.70
2014,05,23,14,16,17.70
2014,05,23,14,17,17.70
2014,05,23,14,18,17.70
2014,05,23,14,19,17.80
2014,05,23,14,20,17.80
2014,05,23,14,21,17.80
2014,05,23,14,22,17.90
2014,05,23,14,23,18.00
2014,05,23,14,24,18.10
2014,05,23,14,25,17.90
2014,05,23,14,26,17.70
2014,05,23,14,27,17.50
2014,05,23,14,28,17.40
2014,05,23,14,29,17.40
2014,05,23,14,30,17.40
2014,05,23,14,31,17.50
2014,05,23,14,32,17.60
2014,05,23,14,33,17.60
2014,05,23,14,34,17.70
2014,05,23,14,35,17.60
2014,05,23,14,36,17.70
2014,05,23,14,37,17.70
2014,05,23,14,38,17.70
2014,05,23,14,39,17.80
2014,05,23,14,40,17.90
2014,05,23,14,41,18.00
2014,05,23,14,42,18.10
2014,05,23,14,43,18.20
2014,05,23,14,44,18.30
2014,05,23,14,45,18.40
2014,05,23,14,46,18.50
2014,05,23,14,47,18.60
2014,05,23,14,48,18.70
2014,05,23,14,49,18.80
2014,05,23,14,50,18.80
2014,05,23,14,51,18.80
2014,05,23,14,52,18.80
2014,05,23,14,53,18.90
2014,05,23,14,54,18.90
2014,05,23,14,55,19.10
2014,05,23,14,56,19.10
2014,05,23,14,57,19.10
2014,05,23,14,58,19.10
2014,05,23,14,59,19.10
2014,05,23,15,00,19.10
2014,05,23,15,01,19.00
2014,05,23,15,02,19.10
2014,05,23,15,03,19.10
2014,05,23,15,04,19.10
2014,05,23,15,05,19.00
2014,05,23,15,06,19.00
2014,05,23,15,07,19.00
2014,05,23,15,08,19.00
2014,05,23,15,09,19.10
2014,05,23,15,10,19.00
2014,05,23,15,11,19.00
2014,05,23,15,12,18.90
2014,05,23,15,13,19.00
2014,05,23,15,14,19.20
2014,05,23,15,15,19.30
2014,05,23,15,16,19.30
2014,05,23,15,17,19.30
2014,05,23,15,18,19.30
2014,05,23,15,19,19.30
2014,05,23,15,20,19.30
2014,05,23,15,21,19.20
2014,05,23,15,22,19.20
2014,05,23,15,23,19.20
2014,05,23,15,24,19.20
2014,05,23,15,25,19.20
2014,05,23,15,26,19.20
2014,05,23,15,27,19.10
2014,05,23,15,28,19.20
2014,05,23,15,29,19.30
2014,05,23,15,30,19.40
2014,05,23,15,31,19.50
2014,05,23,15,32,19.60
2014,05,23,15,33,19.70
2014,05,23,15,34,19.70
2014,05,23,15,35,19.80
2014,05,23,15,36,19.70
2014,05,23,15,37,19.60
2014,05,23,15,38,19.60
2014,05,23,15,39,19.60
2014,05,23,15,40,19.50
2014,05,23,15,41,19.40
2014,05,23,15,42,19.30
2014,05,23,15,43,19.30
2014,05,23,15,44,19.30
2014,05,23,15,45,19.40
2014,05,23,15,46,19.40
2014,05,23,15,47,19.40
2014,05,23,15,48,19.50
2014,05,23,15,49,19.60
2014,05,23,15,50,19.70
2014,05,23,15,51,19.60
2014,05,23,15,52,19.60
2014,05,23,15,53,19.50
2014,05,23,15,54,19.40
2014,05,23,15,55,19.40
2014,05,23,15,56,19.40
2014,05,23,15,57,19.40
2014,05,23,15,58,19.40
2014,05,23,15,59,19.40
2014,05,23,16,00,19.40
2014,05,23,16,01,19.40
2014,05,23,16,02,19.30
2014,05,23,16,03,19.30
2014,05,23,16,04,19.30
2014,05,23,16,05,19.30
2014,05,23,16,06,19.30
2014,05,23,16,07,19.30
2014,05,23,16,08,19.30
2014,05,23,16,09,19.30
2014,05,23,16,10,19.30
2014,05,23,16,11,19.20
2014,05,23,16,12,19.10
2014,05,23,16,13,19.10
2014,05,23,16,14,19.00
2014,05,23,16,15,19.00
2014,05,23,16,16,19.10
2014,05,23,16,17,19.20
2014,05,23,16,18,19.30
2014,05,23,16,19,19.40
2014,05,23,16,20,19.50
2014,05,23,16,21,19.50
2014,05,23,16,22,19.40
2014,05,23,16,23,19.40
2014,05,23,16,24,19.40
2014,05,23,16,25,19.40
2014,05,23,16,26,19.30
2014,05,23,16,27,19.30
2014,05,23,16,28,19.30
2014,05,23,16,29,19.20
2014,05,23,16,30,19.20
2014,05,23,16,31,19.20
2014,05,23,16,32,19.20
2014,05,23,16,33,19.10
2014,05,23,16,34,19.00
2014,05,23,16,35,19.00
2014,05,23,16,36,19.00
2014,05,23,16,37,19.00
2014,05,23,16,38,19.00
2014,05,23,16,39,19.00
2014,05,23,16,40,19.10
2014,05,23,16,41,19.10
2014,05,23,16,42,19.10
2014,05,23,16,43,19.00
2014,05,23,16,44,19.00
2014,05,23,16,45,19.00
2014,05,23,16,46,18.80
2014,05,23,16,47,18.80
2014,05,23,16,48,18.80
2014,05,23,16,49,18.70
2014,05,23,16,50,18.70
2014,05,23,16,51,18.70
2014,05,23,16,52,18.70
2014,05,23,16,53,18.70
2014,05,23,16,54,18.70
2014,05,23,16,55,18.70
2014,05,23,16,56,18.80
2014,05,23,16,57,18.80
2014,05,23,16,58,18.70
2014,05,23,16,59,18.70
2014,05,23,17,00,18.60
2014,05,23,17,01,18.60
2014,05,23,17,02,18.60
2014,05,23,17,03,18.50
2014,05,23,17,04,18.60
2014,05,23,17,05,18.60
2014,05,23,17,06,18.70
2014,05,23,17,07,18.70
2014,05,23,17,08,18.70
2014,05,23,17,09,18.70
2014,05,23,17,10,18.70
2014,05,23,17,11,18.70
2014,05,23,17,12,18.70
2014,05,23,17,13,18.70
2014,05,23,17,14,18.70
2014,05,23,17,15,18.60
2014,05,23,17,16,18.50
2014,05,23,17,17,18.40
2014,05,23,17,18,18.30
2014,05,23,17,19,18.30